Time,TemperatureF,DewpointF,PressureIn,WindDirection,WindDirectionDegrees,WindSpeedMPH,WindSpeedGustMPH,Humidity,HourlyPrecipIn,Conditions,Clouds,dailyrainin,SoftwareType,DateUTC
2013-02-26 00:01:00,44.1,9.0,30.06,WNW,294,2.0,4.0,23,0.00,,,0.00,weatherlink.com 1.10,2013-02-26 08:01:00,
2013-02-26 00:17:00,43.5,8.0,30.07,WNW,294,0.0,2.0,23,0.00,,,0.00,weatherlink.com 1.10,2013-02-26 08:17:00,
2013-02-26 00:33:00,40.6,9.0,30.07,WNW,294,1.0,2.0,27,0.00,,,0.00,weatherlink.com 1.10,2013-02-26 08:33:00,
2013-02-26 00:49:00,39.1,9.0,30.08,WNW,294,0.0,0.0,28,0.00,,,0.00,weatherlink.com 1.10,2013-02-26 08:49:00,
2013-02-26 01:05:00,39.2,9.0,30.07,WNW,294,0.0,0.0,28,0.00,,,0.00,weatherlink.com 1.10,2013-02-26 09:05:00,
2013-02-26 01:21:00,37.6,8.0,30.07,WNW,294,0.0,2.0,29,0.00,,,0.00,weatherlink.com 1.10,2013-02-26 09:21:00,
2013-02-26 01:36:00,38.8,8.0,30.06,WNW,294,1.0,2.0,28,0.00,,,0.00,weatherlink.com 1.10,2013-02-26 09:36:00,
2013-02-26 01:52:00,43.2,9.0,30.06,WNW,294,2.0,6.0,24,0.00,,,0.00,weatherlink.com 1.10,2013-02-26 09:52:00,
2013-02-26 02:08:00,43.3,9.0,30.06,WNW,294,1.0,7.0,24,0.00,,,0.00,weatherlink.com 1.10,2013-02-26 10:08:00,
2013-02-26 02:24:00,42.9,9.0,30.05,WNW,294,2.0,7.0,24,0.00,,,0.00,weatherlink.com 1.10,2013-02-26 10:24:00,
2013-02-26 02:39:00,42.3,8.0,30.05,WNW,294,3.0,7.0,24,0.00,,,0.00,weatherlink.com 1.10,2013-02-26 10:39:00,
2013-02-26 02:56:00,41.9,9.0,30.05,WNW,294,3.0,5.0,25,0.00,,,0.00,weatherlink.com 1.10,2013-02-26 10:56:00,
2013-02-26 03:11:00,42.1,8.0,30.05,WNW,294,4.0,6.0,24,0.00,,,0.00,weatherlink.com 1.10,2013-02-26 11:11:00,
2013-02-26 03:27:00,42.5,8.0,30.04,WNW,294,2.0,6.0,24,0.00,,,0.00,weatherlink.com 1.10,2013-02-26 11:27:00,
2013-02-26 03:43:00,42.6,7.0,30.04,WNW,294,4.0,5.0,23,0.00,,,0.00,weatherlink.com 1.10,2013-02-26 11:43:00,
2013-02-26 03:58:00,43.1,8.0,30.05,WNW,294,4.0,5.0,23,0.00,,,0.00,weatherlink.com 1.10,2013-02-26 11:58:00,
2013-02-26 04:14:00,43.5,8.0,30.05,WNW,294,3.0,6.0,23,0.00,,,0.00,weatherlink.com 1.10,2013-02-26 12:14:00,
2013-02-26 04:30:00,43.3,8.0,30.06,WNW,294,0.0,6.0,23,0.00,,,0.00,weatherlink.com 1.10,2013-02-26 12:30:00,
2013-02-26 04:46:00,42.5,8.0,30.06,WNW,294,1.0,5.0,24,0.00,,,0.00,weatherlink.com 1.10,2013-02-26 12:46:00,
2013-02-26 05:01:00,38.9,8.0,30.07,WNW,294,0.0,0.0,27,0.00,,,0.00,weatherlink.com 1.10,2013-02-26 13:01:00,
2013-02-26 05:17:00,36.8,9.0,30.07,WNW,294,1.0,0.0,31,0.00,,,0.00,weatherlink.com 1.10,2013-02-26 13:17:00,
2013-02-26 05:33:00,35.9,9.0,30.08,WNW,294,0.0,4.0,32,0.00,,,0.00,weatherlink.com 1.10,2013-02-26 13:33:00,
2013-02-26 05:48:00,36.0,9.0,30.09,WNW,294,0.0,2.0,32,0.00,,,0.00,weatherlink.com 1.10,2013-02-26 13:48:00,
2013-02-26 06:04:00,35.5,9.0,30.09,WNW,294,0.0,1.0,33,0.00,,,0.00,weatherlink.com 1.10,2013-02-26 14:04:00,
2013-02-26 06:20:00,35.0,9.0,30.09,WNW,294,0.0,0.0,33,0.00,,,0.00,weatherlink.com 1.10,2013-02-26 14:20:00,
2013-02-26 06:36:00,35.3,10.0,30.10,WNW,294,0.0,4.0,35,0.00,,,0.00,weatherlink.com 1.10,2013-02-26 14:36:00,
2013-02-26 06:52:00,36.3,11.0,30.11,WNW,294,0.0,0.0,35,0.00,,,0.00,weatherlink.com 1.10,2013-02-26 14:52:00,
2013-02-26 07:07:00,38.9,12.0,30.12,WNW,294,0.0,0.0,32,0.00,,,0.00,weatherlink.com 1.10,2013-02-26 15:07:00,
2013-02-26 07:23:00,42.2,12.0,30.13,WNW,294,0.0,0.0,29,0.00,,,0.00,weatherlink.com 1.10,2013-02-26 15:23:00,
2013-02-26 07:39:00,45.7,13.0,30.14,WNW,294,0.0,0.0,26,0.00,,,0.00,weatherlink.com 1.10,2013-02-26 15:39:00,
2013-02-26 07:55:00,47.3,11.0,30.14,WNW,294,0.0,2.0,23,0.00,,,0.00,weatherlink.com 1.10,2013-02-26 15:55:00,
2013-02-26 08:11:00,47.0,12.0,30.15,WNW,294,0.0,2.0,24,0.00,,,0.00,weatherlink.com 1.10,2013-02-26 16:11:00,
2013-02-26 08:26:00,47.1,12.0,30.16,WNW,294,3.0,4.0,24,0.00,,,0.00,weatherlink.com 1.10,2013-02-26 16:26:00,
2013-02-26 08:42:00,47.6,13.0,30.17,WNW,294,4.0,5.0,24,0.00,,,0.00,weatherlink.com 1.10,2013-02-26 16:42:00,
2013-02-26 08:58:00,48.2,12.0,30.17,WNW,294,4.0,6.0,23,0.00,,,0.00,weatherlink.com 1.10,2013-02-26 16:58:00,
2013-02-26 09:14:00,49.5,11.0,30.18,NW,320,0.0,6.0,21,0.00,,,0.00,weatherlink.com 1.10,2013-02-26 17:14:00,
2013-02-26 09:29:00,50.4,12.0,30.17,North,360,4.0,8.0,21,0.00,,,0.00,weatherlink.com 1.10,2013-02-26 17:29:00,
2013-02-26 09:45:00,52.2,9.0,30.18,NNW,333,1.0,15.0,17,0.00,,,0.00,weatherlink.com 1.10,2013-02-26 17:45:00,
2013-02-26 10:01:00,52.8,9.0,30.18,WNW,282,3.0,13.0,17,0.00,,,0.00,weatherlink.com 1.10,2013-02-26 18:01:00,
2013-02-26 10:17:00,53.2,8.0,30.18,NNW,346,5.0,14.0,16,0.00,,,0.00,weatherlink.com 1.10,2013-02-26 18:17:00,
2013-02-26 10:32:00,53.9,9.0,30.17,West,275,6.0,9.0,16,0.00,,,0.00,weatherlink.com 1.10,2013-02-26 18:32:00,
2013-02-26 10:48:00,54.2,7.0,30.17,NNW,344,4.0,13.0,15,0.00,,,0.00,weatherlink.com 1.10,2013-02-26 18:48:00,
2013-02-26 11:04:00,54.7,9.0,30.17,North,360,5.0,10.0,16,0.00,,,0.00,weatherlink.com 1.10,2013-02-26 19:04:00,
2013-02-26 11:20:00,54.8,8.0,30.17,WNW,286,3.0,11.0,15,0.00,,,0.00,weatherlink.com 1.10,2013-02-26 19:20:00,
2013-02-26 11:36:00,56.5,9.0,30.17,NNE,29,3.0,10.0,15,0.00,,,0.00,weatherlink.com 1.10,2013-02-26 19:36:00,
2013-02-26 11:51:00,55.9,9.0,30.16,WSW,248,4.0,18.0,15,0.00,,,0.00,weatherlink.com 1.10,2013-02-26 19:51:00,
2013-02-26 12:07:00,55.7,7.0,30.16,WNW,292,4.0,12.0,14,0.00,,,0.00,weatherlink.com 1.10,2013-02-26 20:07:00,
2013-02-26 12:23:00,56.7,8.0,30.15,NNE,28,1.0,8.0,14,0.00,,,0.00,weatherlink.com 1.10,2013-02-26 20:23:00,
2013-02-26 12:39:00,56.7,6.0,30.15,WNW,293,3.0,12.0,13,0.00,,,0.00,weatherlink.com 1.10,2013-02-26 20:39:00,
2013-02-26 12:55:00,56.9,6.0,30.14,NNW,340,5.0,11.0,13,0.00,,,0.00,weatherlink.com 1.10,2013-02-26 20:55:00,
2013-02-26 13:10:00,56.9,6.0,30.13,WNW,290,6.0,13.0,13,0.00,,,0.00,weatherlink.com 1.10,2013-02-26 21:10:00,
2013-02-26 13:26:00,57.6,5.0,30.13,West,272,8.0,11.0,12,0.00,,,0.00,weatherlink.com 1.10,2013-02-26 21:26:00,
2013-02-26 13:42:00,56.7,5.0,30.12,West,263,4.0,9.0,12,0.00,,,0.00,weatherlink.com 1.10,2013-02-26 21:42:00,
2013-02-26 13:57:00,58.0,6.0,30.11,West,263,1.0,11.0,12,0.00,,,0.00,weatherlink.com 1.10,2013-02-26 21:57:00,
2013-02-26 14:13:00,57.6,5.0,30.11,NW,307,1.0,9.0,12,0.00,,,0.00,weatherlink.com 1.10,2013-02-26 22:13:00,
2013-02-26 14:29:00,57.8,5.0,30.11,NNW,336,4.0,10.0,12,0.00,,,0.00,weatherlink.com 1.10,2013-02-26 22:29:00,
2013-02-26 14:45:00,57.8,5.0,30.11,ENE,72,2.0,8.0,12,0.00,,,0.00,weatherlink.com 1.10,2013-02-26 22:45:00,
2013-02-26 15:01:00,58.1,6.0,30.11,WNW,292,2.0,9.0,12,0.00,,,0.00,weatherlink.com 1.10,2013-02-26 23:01:00,
2013-02-26 15:16:00,57.6,5.0,30.11,NW,307,7.0,8.0,12,0.00,,,0.00,weatherlink.com 1.10,2013-02-26 23:16:00,
2013-02-26 15:32:00,57.2,5.0,30.11,NW,315,0.0,9.0,12,0.00,,,0.00,weatherlink.com 1.10,2013-02-26 23:32:00,
2013-02-26 15:48:00,56.6,4.0,30.11,NNW,343,2.0,11.0,12,0.00,,,0.00,weatherlink.com 1.10,2013-02-26 23:48:00,
2013-02-26 16:04:00,55.7,4.0,30.11,NNW,339,3.0,8.0,12,0.00,,,0.00,weatherlink.com 1.10,2013-02-27 00:04:00,
2013-02-26 16:19:00,55.1,3.0,30.11,NNW,329,1.0,11.0,12,0.00,,,0.00,weatherlink.com 1.10,2013-02-27 00:19:00,
2013-02-26 16:35:00,54.8,3.0,30.11,NNW,338,5.0,9.0,12,0.00,,,0.00,weatherlink.com 1.10,2013-02-27 00:35:00,
2013-02-26 16:50:00,54.2,3.0,30.11,NNW,331,0.0,8.0,12,0.00,,,0.00,weatherlink.com 1.10,2013-02-27 00:50:00,
2013-02-26 17:06:00,53.6,4.0,30.12,NNW,331,0.0,4.0,13,0.00,,,0.00,weatherlink.com 1.10,2013-02-27 01:06:00,
2013-02-26 17:22:00,53.2,4.0,30.12,NNW,332,0.0,7.0,13,0.00,,,0.00,weatherlink.com 1.10,2013-02-27 01:22:00,
2013-02-26 17:38:00,52.6,3.0,30.12,NNW,332,0.0,5.0,13,0.00,,,0.00,weatherlink.com 1.10,2013-02-27 01:38:00,
2013-02-26 17:53:00,51.9,4.0,30.13,NNW,332,0.0,2.0,14,0.00,,,0.00,weatherlink.com 1.10,2013-02-27 01:53:00,
2013-02-26 18:09:00,51.3,5.0,30.13,NNW,332,0.0,5.0,15,0.00,,,0.00,weatherlink.com 1.10,2013-02-27 02:09:00,
2013-02-26 18:26:00,50.5,8.0,30.14,NNW,344,1.0,8.0,18,0.00,,,0.00,weatherlink.com 1.10,2013-02-27 02:26:00,
2013-02-26 18:42:00,50.1,8.0,30.15,NNW,344,0.0,4.0,18,0.00,,,0.00,weatherlink.com 1.10,2013-02-27 02:42:00,
2013-02-26 18:58:00,49.6,9.0,30.16,NNW,344,0.0,5.0,19,0.00,,,0.00,weatherlink.com 1.10,2013-02-27 02:58:00,
2013-02-26 19:13:00,49.2,9.0,30.16,NNW,344,4.0,5.0,19,0.00,,,0.00,weatherlink.com 1.10,2013-02-27 03:13:00,
2013-02-26 19:29:00,48.8,8.0,30.16,NNW,344,0.0,2.0,19,0.00,,,0.00,weatherlink.com 1.10,2013-02-27 03:29:00,
2013-02-26 19:45:00,48.2,9.0,30.18,NNW,344,0.0,1.0,20,0.00,,,0.00,weatherlink.com 1.10,2013-02-27 03:45:00,
2013-02-26 20:01:00,47.0,9.0,30.19,NNW,344,0.0,0.0,21,0.00,,,0.00,weatherlink.com 1.10,2013-02-27 04:01:00,
2013-02-26 20:16:00,46.4,10.0,30.20,NNW,344,0.0,0.0,22,0.00,,,0.00,weatherlink.com 1.10,2013-02-27 04:16:00,
2013-02-26 20:32:00,45.1,9.0,30.20,NNW,344,0.0,1.0,23,0.00,,,0.00,weatherlink.com 1.10,2013-02-27 04:32:00,
2013-02-26 20:48:00,45.4,9.0,30.21,NNW,344,0.0,3.0,22,0.00,,,0.00,weatherlink.com 1.10,2013-02-27 04:48:00,
2013-02-26 21:04:00,45.2,9.0,30.22,NNW,344,0.0,4.0,22,0.00,,,0.00,weatherlink.com 1.10,2013-02-27 05:04:00,
2013-02-26 21:19:00,44.5,9.0,30.23,NNW,344,0.0,0.0,23,0.00,,,0.00,weatherlink.com 1.10,2013-02-27 05:19:00,
2013-02-26 21:35:00,43.5,9.0,30.23,NNW,344,0.0,1.0,24,0.00,,,0.00,weatherlink.com 1.10,2013-02-27 05:35:00,
2013-02-26 21:51:00,42.8,9.0,30.24,NNW,344,0.0,1.0,25,0.00,,,0.00,weatherlink.com 1.10,2013-02-27 05:51:00,
2013-02-26 22:07:00,43.1,9.0,30.25,NNW,344,0.0,5.0,24,0.00,,,0.00,weatherlink.com 1.10,2013-02-27 06:07:00,
2013-02-26 22:22:00,42.9,9.0,30.25,NNW,344,0.0,2.0,24,0.00,,,0.00,weatherlink.com 1.10,2013-02-27 06:22:00,
2013-02-26 22:54:00,42.9,9.0,30.25,NNW,344,0.0,2.0,24,0.00,,,0.00,weatherlink.com 1.10,2013-02-27 06:54:00,
2013-02-26 23:09:00,40.8,9.0,30.25,NNW,344,0.0,4.0,27,0.00,,,0.00,weatherlink.com 1.10,2013-02-27 07:09:00,
2013-02-26 23:25:00,40.1,10.0,30.26,NNW,346,0.0,7.0,28,0.00,,,0.00,weatherlink.com 1.10,2013-02-27 07:25:00,
2013-02-26 23:41:00,40.2,9.0,30.27,NNW,347,0.0,1.0,27,0.00,,,0.00,weatherlink.com 1.10,2013-02-27 07:41:00,
2013-02-26 23:57:00,41.3,9.0,30.27,NNW,346,1.0,2.0,26,0.00,,,0.00,weatherlink.com 1.10,2013-02-27 07:57:00,